Location: Koskioinen
(61.1000°N, 23.2000°E)
Time: 17:19:36
(UTC+00:00)

Daily predictions for brighter satellites

Satellite Brightness Start Highest point End
(mag) Time Altitude Azimuth Time Altitude Azimuth Time Altitude Azimuth
Cosmos 1844 Rocket 3.8 15:14:27 10° WNW 15:19:27 31° N 15:24:29 10° ENE
H-2A R/B 3.1 15:14:56 10° ESE 15:19:28 28° NE 15:24:00 10° N
Timation 2 Rocket 4.5 15:14:01 10° NW 15:20:30 74° SW 15:27:13 10° SSE
Cosmos 1656 Rocket 3.8 15:15:21 10° SSW 15:20:54 64° ESE 15:26:32 10° NE
Landsat 5 3.6 15:17:25 10° NNE 15:21:10 46° E 15:24:57 10° S
ARGOS 4.3 15:17:04 10° E 15:21:23 25° NE 15:25:42 10° N
Meteor 2-14 Rocket 4.5 15:16:26 10° NNW 15:22:38 77° ENE 15:28:47 10° SSE
NOSS 2-1 (D) 3.6 15:19:55 10° SW 15:23:12 48° SE 15:27:04 10° ENE
RESURS DK-1 3.9 15:19:49 10° WNW 15:23:20 25° N 15:26:51 10° NE
CZ-4C R/B 3.1 15:20:13 10° NNE 15:23:24 49° ESE 15:26:38 10° S
CZ-4B R/B 3.4 15:19:28 10° SSE 15:25:04 84° WSW 15:30:35 10° NNW
ATLAS 2AS CENTAUR R/B 3.0 15:18:14 10° WNW 15:26:09 77° N 15:33:32 10° E
Cosmos 1758 3.9 15:22:59 10° SSW 15:27:04 63° WNW 15:31:09 10° N
GEOS 3 Rocket 3.8 15:21:51 10° ESE 15:27:15 80° NNE 15:32:41 10° WNW
USA 215 3.6 15:21:06 10° E 15:27:36 63° S 15:34:07 10° WSW
Cosmos 2227 Rocket 2.2 15:22:13 10° NW 15:27:56 83° NE 15:33:37 10° SE
Cosmos 2279 Rocket 4.1 15:23:33 10° SSW 15:29:49 89° WNW 15:36:06 10° NNE
SeaSat 1 3.0 15:25:34 10° E 15:30:12 42° NNE 15:34:50 10° NW
Cosmos 371 Rocket 3.5 15:25:51 10° SW 15:30:42 79° NW 15:35:37 10° NNE
YAOGAN 1 3.4 15:27:16 10° ESE 15:31:03 30° NE 15:34:51 10° N
Cosmos 1408 3.7 15:28:10 10° N 15:31:11 23° ENE 15:34:12 10° ESE
Cosmos 1939 Rocket 3.2 15:27:33 10° SE 15:31:16 42° ENE 15:34:58 10° N
Cosmos 2263 Rocket 2.8 15:26:23 10° NW 15:31:46 40° NNE 15:37:08 10° E
SL-16 R/B 4.0 15:26:45 10° NNE 15:32:18 35° NW 15:37:53 10° WSW
Okean O Rocket 1.7 15:28:47 10° SSE 15:33:10 82° WSW 15:37:33 10° NNW
Meteor 1-16 Rocket 4.2 15:28:42 10° S 15:34:12 68° ESE 15:39:35 10° NNE
Aureole 3 Rocket 4.5 15:31:14 10° SE 15:35:19 28° ENE 15:40:40 10° NNE
Cosmos 1758 Rocket 3.9 15:31:23 10° NNW 15:35:49 75° W 15:40:11 10° S
NOAA 12 4.3 15:30:44 10° SSE 15:36:04 84° WSW 15:41:28 10° NNW
Cosmos 1892 3.3 15:32:55 10° N 15:36:31 35° ENE 15:40:07 10° SE
Cosmos 1544 Rocket 4.0 15:33:27 10° SSW 15:37:51 67° WNW 15:42:17 10° NNE
Cosmos 968 Rocket 3.5 15:34:06 10° NNW 15:39:23 73° NE 15:44:36 10° SE
Cosmos 1726 Rocket 4.3 15:35:58 10° SSE 15:39:52 32° E 15:43:49 10° NNE
CSL-04 Rocket 4.3 15:35:38 10° ESE 15:40:37 36° NE 15:45:34 10° NNW
Cosmos 1908 3.2 15:37:14 10° S 15:41:05 67° E 15:44:58 10° NNE
Cosmos 2228 3.4 15:39:08 10° SSE 15:43:09 41° E 15:47:13 10° NNE
Helios 1A Rocket 3.3 15:39:19 10° SE 15:43:13 43° ENE 15:47:07 10° N
Cosmos 2297 4.5 15:38:00 10° WSW 15:43:28 48° NNW 15:48:57 10° NE
NOSS 7 (E) 4.5 15:41:37 10° W 15:44:38 56° N 15:47:30 13° ENE
IRS-1C Rocket 4.1 15:40:00 10° SE 15:45:13 66° ENE 15:50:28 10° NNW
Cosmos 1400 Rocket 4.0 15:42:59 10° SE 15:46:15 23° E 15:49:30 10° NE
Lacrosse 5 2.4 15:43:26 10° WSW 15:48:21 52° S 15:53:02 11° E
Cosmos 2151 4.3 15:45:36 10° N 15:48:49 20° NE 15:51:50 11° E
Cosmos 1420 Rocket 4.1 15:44:33 10° SW 15:49:49 86° WNW 15:55:06 10° NE
ADEOS Rocket 3.2 15:43:59 10° NNE 15:50:11 74° ESE 15:57:06 10° SSW
Timation 1 Rocket 4.4 15:44:30 10° NW 15:50:32 68° NE 15:56:33 10° ESE
Cosmos 1818 3.7 15:45:38 10° SW 15:51:03 69° SE 15:56:19 11° ENE
Cosmos 332 Rocket 4.0 15:46:26 10° SW 15:51:22 76° NW 15:56:20 10° NNE
Cosmos 1697 Rocket 4.3 15:49:26 10° ESE 15:51:49 13° E 15:52:58 12° E
Cosmos 2058 3.4 15:48:28 10° N 15:52:20 38° ENE 15:56:11 10° SE
Cosmos 1825 3.1 15:51:45 10° N 15:55:05 27° ENE 15:58:23 10° ESE
Cosmos 1300 3.2 15:51:34 10° SSE 15:55:08 38° E 15:58:43 10° NNE
Cosmos 1606 Rocket 3.8 15:51:31 10° S 15:55:46 50° E 16:00:05 10° NNE
Cosmos 2263 4.4 15:50:13 10° SW 15:56:01 80° NW 16:01:47 10° NE
EP 3 3.6 15:54:12 10° WSW 15:56:09 69° NNW 15:57:23 20° ENE
SMAP 3.8 15:51:34 10° S 15:56:10 58° WSW 16:00:48 10° NNW
SL-08 R/B 4.5 15:50:28 10° NNW 15:56:39 62° ENE 16:02:44 10° SSE
CZ-4 R/B 1.6 15:53:30 10° SE 15:57:10 44° ENE 16:00:52 10° N
SKYMED 2 4.5 15:53:30 10° NNE 15:57:15 27° E 16:00:58 10° SSE
Meteor 2-16 Rocket 4.5 15:52:48 10° NNW 15:58:57 90° ENE 16:05:04 10° SSE
ERS-2 2.5 15:57:05 10° NNE 16:00:36 42° E 16:04:06 10° S
Cosmos 1110 Rocket 4.2 15:55:45 10° S 16:00:46 48° ESE 16:05:47 10° NE
USA 281 4.3 15:54:29 10° S 16:00:51 50° WSW 16:07:15 10° NW
Cosmos 1745 Rocket 4.1 15:55:08 10° N 16:01:18 54° ENE 16:07:29 10° SE
ERBS 3.2 15:58:52 10° WSW 16:02:02 40° S 16:04:32 15° ESE
Cosmos 1356 Rocket 3.7 15:58:03 10° SSW 16:02:21 74° WNW 16:06:42 10° NNE
Cosmos 1346 Rocket 3.0 15:58:55 10° N 16:02:50 50° ENE 16:06:44 10° SE
NOAA 11 4.3 15:57:41 10° SSE 16:03:08 81° WSW 16:08:37 10° NNW
SL-4 R/B 3.8 16:01:27 10° SW 16:03:59 19° S 16:06:37 10° SE
Cosmos 1486 Rocket 4.2 15:58:45 10° NW 16:04:08 83° WSW 16:09:29 10° SSE
CZ-2D R/B 3.2 16:02:11 10° SSE 16:05:57 61° ENE 16:09:44 10° NNW
Cosmos 1340 2.6 16:03:25 10° NNW 16:07:14 88° ENE 16:11:02 10° SSE
Cosmos 2297 Rocket 2.9 16:01:59 10° NW 16:07:35 58° WSW 16:13:07 10° SSE
Okean-O 2.6 16:03:58 10° SE 16:08:21 62° ENE 16:12:46 10° NNW
In-Cosmos 22 Rocket 4.1 16:04:18 10° NNW 16:09:41 83° ENE 16:15:07 10° SSE
Cosmos 2369 Rocket 2.7 16:06:29 10° WSW 16:12:08 60° NW 16:17:50 10° NE
Cosmos 1953 3.5 16:09:13 10° SW 16:13:03 45° WNW 16:16:55 10° N
Cosmos 1503 Rocket 3.9 16:08:55 10° NNW 16:14:10 80° NE 16:19:26 10° SE
NOSS 2-1 (E) 3.2 16:12:50 10° WSW 16:16:21 81° SSE 16:19:21 19° ENE
Cosmos 1689 Rocket 3.0 16:17:12 24° ENE 16:17:45 26° E 16:20:15 10° SSE
Cosmos 1953 Rocket 4.3 16:13:56 10° NNW 16:18:17 59° W 16:22:38 10° S
Cosmos 1315 Rocket 4.2 16:15:47 10° SE 16:18:11 19° E 16:18:11 19° E
SL-08 RB Rocket 4.5 16:16:14 15° ESE 16:19:13 31° NE 16:23:11 10° N
CZ-4B R/B 1.3 16:16:16 10° NNE 16:19:31 59° ESE 16:22:40 10° S
CSL-04 Debris 4.2 16:16:42 10° SE 16:22:04 59° ENE 16:27:28 10° NNW
Cosmos 2056 Rocket 4.5 16:17:30 10° WSW 16:22:26 44° NW 16:27:22 10° NNE
Aureole 3 3.1 16:19:42 10° SSE 16:22:29 37° E 16:25:22 10° NNE
Cosmos 2227 4.3 16:17:10 10° NW 16:22:45 57° NE 16:27:11 16° ESE
Genesis I 3.6 16:20:10 10° W 16:23:58 53° N 16:26:21 21° ENE
CSL-04 DEB 4.5 16:20:29 10° NNE 16:24:28 77° WNW 16:28:23 10° SSW
CZ-4C R/B 2.7 16:19:47 10° WNW 16:26:02 79° NNE 16:31:48 18° E
Cosmos 1354 Rocket 4.0 16:21:01 10° NNW 16:26:19 85° NE 16:31:36 10° SE
COSMOS 2455 3.4 16:22:40 10° WNW 16:28:33 48° N 16:32:43 19° ENE
Cosmos 304 Rocket 4.4 16:26:08 10° SW 16:30:51 55° NW 16:35:36 10° NNE
Cosmos 1709 Rocket 4.2 16:24:41 10° N 16:30:56 53° ENE 16:37:11 10° SE
Cosmos 2058 Rocket 3.2 16:26:54 10° S 16:31:18 56° E 16:35:46 10° NNE
CZ-2C R/B 3.2 16:25:40 10° SSE 16:31:24 75° ENE 16:36:54 10° NNW
NOSS 7 (H) 4.4 16:30:26 10° WNW 16:33:27 65° NNE 16:35:00 30° E
Cosmos 1441 Rocket 4.1 16:34:40 10° N 16:38:06 28° ENE 16:38:32 27° ENE
Cosmos 1452 Rocket 3.9 16:33:08 10° SW 16:38:23 65° NW 16:43:41 10° NNE
SJ 16-02 2.4 16:36:49 10° NNW 16:40:41 28° NE 16:41:55 25° ENE
Cosmos 1076 Rocket 3.4 16:36:43 10° NNW 16:41:00 69° ENE 16:45:14 10° SSE
Meteor 2-3 Rocket 4.2 16:35:48 10° NNW 16:41:13 41° ENE 16:44:48 20° ESE
Cosmos 1943 Rocket 3.2 16:37:05 10° W 16:42:17 40° NNW 16:47:05 12° NE
Meteor 2-10 Rocket 3.8 16:37:48 10° SSE 16:42:38 40° E 16:47:23 10° NNE
Cosmos 1455 3.2 16:39:45 10° SSE 16:47:45 - NNE 16:42:12 27° ESE
SL-08 ROCKET BODY 4.5 16:38:24 10° NNW 16:44:31 86° WSW 16:50:42 10° S
COSMO-SKYMED 1 2.5 16:41:18 10° NNE 16:45:39 60° ESE 16:49:57 10° S
H-2A R/B 3.0 16:41:36 10° NNE 16:45:40 47° WNW 16:49:39 10° SW
Cosmos 2082 4.3 16:41:49 10° NW 16:47:29 61° WSW 16:53:07 10° SSE
ATLAS 5 CENTAUR R/B 1.9 16:47:16 10° W 16:51:51 72° N 16:54:45 27° ENE
Ariane Rocket 3.3 16:50:34 25° ESE 16:53:06 44° ENE 16:57:57 10° NNW
USA-17 4.3 16:50:18 10° WNW 16:53:23 72° NNE 16:54:15 46° E
Cosmos 2278 Rocket 3.4 16:49:17 10° WNW 16:54:19 31° N 16:57:28 19° NE
Cosmos 44 3.5 16:50:40 10° SSW 16:55:09 50° SE 16:57:04 31° E
NOSS 3-4 (A) 3.9 16:48:38 10° WNW 16:55:14 72° SW 17:01:08 17° SE
NOSS 3-4 (C) 3.9 16:48:44 10° WNW 16:55:20 72° SSW 17:01:12 17° SE
CRYOSAT 2 4.4 16:52:53 10° N 16:57:41 54° E 17:02:27 10° SSE
CZ-2C R/B 4.3 16:53:39 10° NNE 16:55:31 17° NE 16:55:31 17° NE
H-2A R/B 2.1 16:52:52 10° SSE 16:58:21 85° ENE 17:03:50 10° NNW
S3M 4.0 16:54:15 10° S 17:00:14 59° E 17:06:20 10° NNE
ARGOS 3.1 16:55:34 10° SSE 17:00:59 75° ENE 17:06:27 10° NNW
Cosmos 2315 Rocket 4.4 16:56:19 10° SSE 17:01:56 38° E 17:07:34 10° NNE
RESURS DK-1 3.6 16:58:46 10° NW 17:02:27 29° NNE 17:03:27 26° NE
SJ-11-01 4.2 16:58:02 10° SSE 17:02:43 89° WSW 17:07:27 10° NNW
GENESIS II 4.3 16:59:22 10° SW 17:03:21 59° SE 17:04:18 45° E
Cosmos 1844 Rocket 3.3 16:59:15 10° NW 17:04:40 42° NNE 17:06:49 30° ENE
Cosmos 1656 Rocket 4.5 16:59:16 10° WSW 17:04:45 50° NNW 17:09:40 13° NE
GEOS 3 Rocket 4.5 17:00:24 10° SSE 17:05:34 49° SW 17:10:50 10° WNW
Cosmos 1656 3.8 17:00:16 10° SSW 17:05:39 50° ESE 17:08:57 23° NE
Cosmos 1408 3.2 17:02:54 10° NNW 17:06:30 57° W 17:10:06 10° S
YAOGAN 1 3.1 17:02:39 10° S 17:06:57 62° WSW 17:11:17 10° NNW
SeaSat 1 2.6 17:03:39 17° SSE 17:07:33 76° SW 17:12:32 10° NW
Okean 3 Rocket 3.8 17:03:29 10° N 17:07:45 47° ENE 17:08:30 42° E
Meteor 2-8 Rocket 4.4 17:01:46 10° SSW 17:07:55 89° E 17:14:08 10° NNE
Cosmos 1766 Rocket 3.9 17:03:44 10° N 17:08:04 45° ENE 17:08:48 41° E
NOSS 2-1 (C) 3.4 17:04:44 10° W 17:08:19 71° NNW 17:09:42 40° ENE
Cosmos 2369 4.4 17:04:29 10° S 17:09:18 32° ESE 17:09:18 32° ESE
SKYMED 3 4.5 17:05:21 10° NNE 17:09:44 89° ESE 17:14:06 10° SSW
Resurs 01 Rocket 2.8 17:10:29 26° NE 17:10:29 26° NE 17:13:45 10° N
Cosmos 1417 Rocket 4.4 17:04:38 10° S 17:10:56 77° E 17:17:19 10° NNE
USA 215 3.6 17:07:14 25° ESE 17:11:12 59° SSW 17:17:41 10° W
Cosmos 2227 Rocket 4.0 17:06:38 10° NW 17:11:33 31° WSW 17:16:27 10° S
Cosmos 1892 4.2 17:08:38 10° NNW 17:12:17 39° W 17:15:55 10° SSW
Cosmos 1331 Rocket 4.1 17:07:51 10° SW 17:13:01 74° NW 17:18:08 10° NNE
NOSS 2-1 (D) 3.4 17:10:00 10° W 17:13:35 69° N 17:14:48 43° ENE
Cosmos 1812 Rocket 3.7 17:09:43 10° S 17:13:56 48° E 17:18:10 10° NNE
MOS 1 Rocket 3.4 17:10:44 10° NNE 17:15:12 48° E 17:19:54 10° S
SJ-6B 3.1 17:15:08 48° ENE 17:15:20 48° ENE 17:19:21 10° N
ARIANE 5 R/B 4.2 17:16:45 20° NE 17:16:45 20° NE 17:19:28 10° N
Cosmos 2263 Rocket 2.2 17:10:35 10° NW 17:16:19 89° NE 17:19:27 28° SE
OBJECT-B 2.9 17:18:08 18° NNE 17:18:08 18° NNE 17:19:16 10° N
ATLAS 2AS CENTAUR R/B 3.1 17:09:37 10° WNW 17:17:19 71° SW 17:22:01 24° SE
Cosmos 1726 Rocket 4.5 17:13:18 10° SW 17:17:34 50° WNW 17:21:53 10° N
Helios 1A Rocket 4.5 17:14:39 10° SSW 17:18:29 36° W 17:22:19 10° NNW
Cosmos 1844 4.2 17:14:00 10° NW 17:19:20 43° NNE 17:20:57 35° ENE
Cosmos 1937 Rocket 4.2 17:15:24 10° NNW 17:20:09 35° NE 17:21:02 33° ENE
CSL-04 Rocket 3.9 17:15:10 10° S 17:20:42 71° WSW 17:26:13 10° NNW
Cosmos 2228 4.4 17:16:46 10° SW 17:20:46 38° WNW 17:24:51 10° N
Aureole 3 Rocket 3.9 17:17:21 10° SSW 17:22:03 72° WNW 17:28:47 10° NNE
Cosmos 1400 Rocket 3.2 17:18:19 10° SSW 17:22:24 65° WNW 17:26:28 10° NNE
Cosmos 292 Rocket 4.0 17:20:29 10° SW 17:25:19 72° NW 17:29:15 16° NNE
Cosmos 2151 2.8 17:22:29 10° NNW 17:26:45 90° SW 17:28:26 36° SSE
Cosmos 2154 Rocket 4.4 17:21:03 10° N 17:26:56 41° ENE 17:28:03 38° E
Cosmos 2058 4.3 17:25:27 10° NNW 17:29:18 39° W 17:33:06 10° SSW
Cosmos 1553 Rocket 4.1 17:22:57 10° SSW 17:29:18 81° WNW 17:35:34 10° NNE
Cosmos 1633 3.8 17:25:52 10° N 17:27:53 29° NNE 17:27:53 29° NNE
Meteor 2-15 Rocket 4.3 17:23:24 10° S 17:29:32 75° E 17:35:41 10° NNE
PSLV R/B 4.1 17:25:43 10° NNE 17:29:57 76° WNW 17:34:06 10° SSW
HJ-1C 4.1 17:28:38 27° SSW 17:30:12 53° WSW 17:33:33 10° NNW
SAR-Lupe-4 4.5 17:26:47 10° N 17:30:17 49° WNW 17:33:45 10° SW
Cosmos 1825 3.0 17:27:07 10° NNW 17:30:50 50° W 17:34:22 11° S
Cosmos 1300 4.4 17:27:19 10° SW 17:30:51 34° WNW 17:34:24 10° N
Lacrosse 5 2.3 17:26:02 10° W 17:30:56 50° SSW 17:32:14 40° SSE
Cosmos 1777 Rocket 4.1 17:26:35 10° NW 17:31:48 75° WSW 17:34:32 29° SSE
CZ-4 R/B 3.1 17:28:51 10° SSW 17:32:21 32° W 17:35:52 10° NNW
SKYMED 2 4.0 17:29:27 10° NNE 17:33:46 63° WNW 17:38:05 10° SSW
ERS-2 3.9 17:30:48 10° N 17:34:06 32° WNW 17:37:23 10° WSW
EO 1 Delta rocket 4.0 17:29:01 10° NNE 17:34:15 53° E 17:34:35 52° ESE
Cosmos 1697 Rocket 2.8 17:29:10 10° S 17:34:31 47° ESE 17:34:45 47° ESE
Cosmos 1818 3.8 17:29:22 10° W 17:34:48 64° NNW 17:36:57 37° NE
ADEOS Rocket 4.5 17:29:53 10° NNE 17:35:29 39° NW 17:41:37 10° WSW
ERBS 3.7 17:34:49 10° W 17:37:25 31° SW 17:37:25 31° SW
ERS-1 Rocket 4.5 17:38:49 21° NE 17:38:49 21° NE 17:42:05 10° N
Meteor 2-1 Rocket 4.0 17:33:05 10° S 17:38:37 82° ESE 17:44:13 10° NNE
Meteor 2-15 4.5 17:35:23 10° SSW 17:41:33 83° WNW 17:47:43 10° NNE
SL-4 R/B 4.2 17:40:46 10° SW 17:42:37 13° SSW 17:42:47 13° SSW
Cosmos 1302 Rocket 4.1 17:39:32 10° SW 17:44:50 75° NW 17:49:01 17° NNE
Cosmos 1408 Rocket 4.0 17:40:36 10° N 17:44:19 49° NNE 17:44:19 49° NNE
Cosmos 1689 Rocket 3.9 17:49:15 32° WNW 17:49:15 32° WNW 17:51:36 10° SW
CZ-4B R/B 3.9 17:48:58 10° N 17:51:31 21° NW 17:54:00 10° WSW
Resurs 1-3 4.0 17:53:16 51° NNE 17:53:16 51° NNE 17:56:53 10° NNW
Terra 3.7 17:55:15 18° NNE 17:55:15 18° NNE 17:57:28 10° N
Cosmos 1315 Rocket 3.2 17:50:49 10° SSW 18:00:22 - NNE 17:54:01 55° SW
Cosmos 1898 Rocket 3.6 17:49:47 10° NNW 17:55:04 58° NE 17:55:18 57° ENE
SL-08 RB Rocket 4.0 17:54:21 36° S 17:56:03 63° WSW 18:00:33 10° NNW
Cosmos 2369 Rocket 3.5 17:52:02 10° WNW 17:57:13 33° NNW 18:00:06 21° NE
Cosmos 1980 Rocket 4.1 17:52:28 10° S 17:53:25 15° S 17:53:25 15° S
DMSP B5D1-3 4.4 17:55:29 10° NNE 18:00:40 88° WNW 18:05:51 10° SSW
Genesis I 4.0 17:58:07 10° WNW 18:01:14 48° NNW 18:01:14 48° NNW
MetOp-A 4.1 18:01:11 46° S 18:02:52 81° WSW 18:08:17 10° NNW
SPOT 3 Rocket 3.5 18:03:03 69° ENE 18:03:06 69° ENE 18:08:20 10° NNW
NOSS 2-1 (E) 3.8 18:03:13 10° W 18:06:41 62° NNW 18:06:41 62° NNW
Cosmos 1295 Rocket 4.5 18:03:58 10° N 18:09:59 57° ENE 18:09:59 57° ENE
Cosmos 2184 Rocket 3.9 18:05:13 10° NNW 18:11:34 86° ENE 18:13:19 51° SSE
IRS-1A Rocket 4.5 18:10:43 36° S 18:12:58 66° WSW 18:18:29 10° NNW
Cosmos 1441 Rocket 4.2 18:10:29 10° NNW 18:13:37 45° WNW 18:13:37 45° WNW
CZ-4C R/B 3.0 18:08:12 10° WNW 18:14:46 66° SW 18:17:00 46° SSE
COSMOS 2455 2.8 18:09:13 10° NW 18:15:17 68° NNE 18:15:51 64° ENE
SPOT 5 4.5 18:19:02 23° NNE 18:19:02 23° NNE 18:21:23 10° N
Cosmos 1455 3.8 18:15:00 10° SW 18:22:38 - N 18:17:16 30° WSW
SJ 16-02 1.9 18:15:20 10° NNW 18:18:55 57° NW 18:18:55 57° NW
Spot 2 Rocket 4.3 18:21:59 39° NNE 18:21:59 39° NNE 18:25:38 10° NNW
COSMO-SKYMED 1 4.4 18:17:47 10° N 18:21:38 31° NW 18:25:27 10° WSW
Cosmos 1992 Rocket 4.0 18:17:20 10° SW 18:22:34 81° NW 18:22:44 80° NNW
Meteor 2-10 Rocket 4.3 18:19:38 10° SW 18:24:41 49° WNW 18:29:37 10° NNE
Meteor 2-3 Rocket 4.2 18:19:07 10° NNW 18:24:43 58° W 18:27:07 33° SSW
Cosmos 1943 Rocket 3.5 18:22:31 10° WNW 18:27:22 30° N 18:28:36 27° NNE
Cosmos 2074 Rocket 4.0 18:24:23 10° NNW 18:30:38 75° W 18:32:12 52° SSW
Ariane Rocket 3.7 18:30:46 40° SW 18:32:06 50° W 18:37:05 10° NNW
Cosmos 2327 Rocket 4.3 18:28:09 10° NNW 18:34:20 87° E 18:34:32 84° SE
Cosmos 44 3.8 18:31:35 10° WSW 18:35:30 57° WNW 18:35:30 57° WNW
ATLAS 5 CENTAUR R/B 2.2 18:31:58 10° WNW 18:36:16 67° NW 18:36:16 67° NW
H-2A R/B 4.1 18:33:53 10° SW 18:38:26 26° W 18:42:59 10° NNW
CZ-2C R/B 3.5 18:33:32 10° NNE 18:37:01 40° NNE 18:37:01 40° NNE
Cosmos 2278 Rocket 2.9 18:34:13 10° NW 18:39:18 44° NNE 18:39:18 44° NNE
Cosmos 990 Rocket 4.2 18:34:32 10° NW 18:39:10 68° NW 18:39:10 68° NW
Cosmos 2341 Rocket 4.2 18:34:17 10° NNW 18:39:41 57° NNE 18:39:41 57° NNE
RESURS DK-1 4.0 18:36:58 10° NW 18:39:19 32° NNW 18:39:19 32° NNW
Resurs 01 Rocket 3.0 18:48:03 35° NNW 18:48:03 35° NNW 18:50:40 10° NNW
Cosmos 2315 Rocket 4.3 18:41:08 10° SSW 18:47:17 64° WNW 18:53:29 10° NNE
OBJECT-B 4.0 18:51:19 13° NNW 18:51:19 13° NNW 18:51:44 10° NNW
Cosmos 1844 Rocket 2.8 18:43:23 10° NW 18:48:28 71° WNW 18:48:28 71° WNW
Cosmos 1656 4.2 18:43:47 10° WSW 18:49:21 58° NW 18:50:25 50° N
ARIANE 5 R/B 4.3 18:54:18 29° NNW 18:54:18 29° NNW 18:56:31 10° NNW
Cosmos 2369 4.5 18:47:30 10° SW 18:51:18 44° SW 18:51:18 44° SW
USA 215 4.1 18:54:35 36° SSW 18:55:06 36° SW 19:01:05 10° W
SL-8 Rocket 4.4 18:52:21 10° NNW 18:57:08 51° NNE 18:57:08 51° NNE
Cosmos 2263 Rocket 3.7 18:54:56 10° NW 18:59:44 29° WSW 19:01:10 26° SW
Cosmos 1937 Rocket 4.3 18:57:27 10° NW 19:01:12 48° NW 19:01:12 48° NW
Cosmos 1844 4.1 18:58:21 10° NW 19:02:50 58° NW 19:02:50 58° NW
ATLAS 2AS CENTAUR R/B 4.1 19:00:58 10° WNW 19:07:20 31° WSW 19:09:28 26° SSW
Cosmos 2154 Rocket 4.3 19:06:40 10° NNW 19:12:48 62° W 19:12:51 62° W
Lacrosse 5 3.8 19:08:57 10° W 19:11:26 22° WSW 19:11:26 22° WSW
ERS-1 Rocket 4.5 19:18:49 31° N 19:18:49 31° N 19:21:27 10° NNW
Cosmos 1697 Rocket 3.7 19:12:52 10° WSW 19:16:32 39° W 19:16:32 39° W
Terra 3.9 19:34:09 22° N 19:34:09 22° N 19:35:53 10° NNW
Cosmos 2369 Rocket 3.6 19:37:30 10° NW 19:41:52 32° N 19:41:52 32° N
SJ 16-02 4.2 19:54:41 10° NW 19:55:54 15° WNW 19:55:54 15° WNW
COSMOS 2455 4.1 19:55:20 10° NW 19:58:59 35° WNW 19:58:59 35° WNW
CZ-4C R/B 4.2 19:56:51 10° WNW 20:02:11 29° WSW 20:02:11 29° WSW
ATLAS CENTAUR R/B 4.5 19:40:53 10° W 20:03:47 70° SSW 20:04:31 69° S
Cosmos 1943 Rocket 3.9 20:07:10 10° NW 20:10:06 28° NNW 20:10:06 28° NNW
CZ-2C R/B 4.4 20:14:12 10° N 20:18:30 30° NW 20:18:30 30° NW
ATLAS 5 CENTAUR R/B 4.3 20:16:29 10° WNW 20:17:47 19° WNW 20:17:47 19° WNW
Cosmos 2278 Rocket 3.9 20:18:32 10° NW 20:21:08 28° NW 20:21:08 28° NW
Cosmos 2369 Rocket 4.5 21:22:03 10° NW 21:23:39 19° NW 21:23:39 19° NW
SL-16 R/B 4.3 22:22:28 28° N 22:22:28 28° N 22:25:32 10° NNW
SL-16 R/B 4.4 23:23:09 21° NE 23:23:09 21° NE 23:24:54 10° NE
Cosmos 2219 Rocket 4.3 23:27:26 23° NNE 23:27:26 23° NNE 23:29:41 10° NE
CZ-2D R/B 4.4 23:24:20 10° NNE 23:26:01 19° NE 23:26:01 19° NE
Cosmos 2322 Rocket 4.1 23:45:31 26° NNE 23:45:31 26° NNE 23:48:50 10° ENE
